Location: Vancouver
(49.2500°N, 123.1330°W)
Time: 16:35:43
(UTC-07:00)

ERS-2 - Visible Passes

Search period start: 30 October 2014 00:00
Search period end: 08 November 2014 23:00
Orbit: 528 x 533 km, 98.6° (Epoch: 30 October)

Date Brightness Start Highest point End Pass type
(mag) Time Alt. Az. Time Alt. Az. Time Alt. Az.
01 Nov 5.0 07:25:21 10° ESE 07:27:59 18° ENE 07:30:38 10° NNE visible
02 Nov 5.1 06:15:43 10° E 06:17:51 15° ENE 06:20:00 10° NNE visible
03 Nov 5.2 06:06:20 10° ENE 06:07:43 12° ENE 06:09:07 10° NE visible
